RH
30 34 34 29 24 24 24 22 20 20 20 22 24 24 20 16 12 8 4 2 4 42 62 58 51 57 90
22 38 43 46 40 35 34 34 32 32 32 32 32 32 30 26 19 15 9 6 3 3 42 59 55 51 58
31 40 46 54 50 45 40 37 37 42 39 46 53 50 42 33 24 18 15 10 6 5 7 52 53 52 48
52 46 47 53 50 41 29 34 34 45 55 72 74 65 64 49 44 38 32 19 14 10 33 20 66 53 48
64 61 55 48 46 44 48 45 40 52 76 79 79 67 54 56 48 55 46 31 18 24 38 31 39 71 45
78 72 60 59 58 61 64 73 73 58 94 74 74 60 50 63 64 60 58 42 41 33 29 49 28 70 49
83 80 74 73 89 82 92 98 97 98 97 69 69 48 39 51 60 62 60 46 39 52 55 32 62 60 50
94 89 99 96 93 91 97 98 86 91 100 76 74 46 35 40 56 59 58 55 32 32 48 64 63 100 83
96 100 99 92 91 93 88 99 97 95 96 90 87 62 36 27 36 59 61 52 38 38 26 31 51 70 99
80 85 95 97 99 100 98 96 97 94 89 94 87 83 74 44 43 67 63 68 66 59 34 26 34 40 67
74 67 78 98 98 94 97 100 100 92 88 100 81 79 92 83 59 78 83 98 92 49 26 25 57 70 56
80 68 65 85 99 89 91 97 100 94 89 100 94 85 92 96 83 88 97 60 66 38 31 28 25 32 52
85 71 82 84 89 88 85 91 96 97 100 100 93 75 82 86 92 83 96 69 55 38 31 28 24 20 21
85 81 90 92 86 94 92 97 90 92 100 97 83 68 69 78 87 73 88 95 66 67 44 30 26 21 19
90 90 92 100 96 97 100 98 99 94 97 96 87 83 72 68 68 65 78 95 93 72 56 50 41 29 22
92 95 94 95 98 96 100 96 97 99 100 94 91 95 70 48 47 52 65 82 77 67 57 42 45 40 36
95 95 95 93 95 99 100 96 95 96 95 99 93 90 74 61 50 50 52 61 53 47 46 45 37 40 37
Wind_Speed
47 48 48 46 43 41 41 40 39 38 37 38 40 41 43 44 39 39 45 54 58 57 56 55 55 54 60
48 51 47 45 42 41 39 39 38 36 36 36 37 40 40 40 43 39 38 42 51 57 56 56 56 55 54
51 47 45 42 39 39 38 38 38 37 38 37 36 35 36 36 38 40 36 37 43 50 56 55 54 55 54
48 46 43 39 36 37 38 37 38 37 37 34 36 33 31 32 33 34 35 35 39 44 43 53 51 53 53
46 44 41 38 38 36 38 39 38 35 32 34 35 35 33 32 31 30 31 32 36 40 42 44 50 48 50
42 41 39 38 38 36 36 37 35 27 33 34 35 35 32 30 27 27 29 29 31 35 40 39 46 47 46
37 36 36 35 35 35 33 34 30 30 31 35 33 31 28 29 28 28 28 28 28 31 35 40 39 44 45
33 33 33 31 33 33 35 34 33 34 33 37 29 26 24 24 25 27 27 28 28 28 33 34 37 35 43
36 31 30 28 29 32 34 34 33 31 30 31 26 27 27 24 23 24 26 27 26 28 28 29 31 39 35
35 35 32 32 29 30 31 32 32 30 25 29 25 23 25 22 23 22 21 22 23 25 28 27 27 30 36
34 35 37 34 30 29 29 28 29 29 24 28 25 22 22 24 25 21 20 22 22 23 24 25 25 26 30
33 34 29 25 28 28 26 26 28 29 26 25 26 24 23 22 24 24 23 22 22 22 22 21 22 24 25
31 31 25 24 25 27 27 25 24 25 25 25 25 25 24 24 24 23 25 22 22 21 21 21 20 20 21
28 29 27 25 26 25 25 23 25 22 24 24 25 26 26 25 25 26 24 25 22 21 22 21 20 19 18
27 27 28 30 28 22 23 22 24 23 21 22 23 24 24 25 26 26 26 24 23 26 25 22 19 21 20
26 26 27 27 28 26 24 24 23 22 24 22 22 24 25 25 25 25 26 27 24 24 28 28 24 21 22
27 26 26 26 25 25 24 23 23 23 24 24 24 25 26 26 22 25 26 27 27 27 25 28 30 26 25
Wind_Direction
306 303 299 296 293 291 289 287 286 285 281 278 275 273 271 271 268 262 258 254 248 248 245 242 240 239 238
308 303 298 294 293 290 289 288 290 290 289 286 280 273 270 266 267 266 260 256 254 246 246 243 241 240 240
306 300 297 295 292 288 288 287 286 286 283 284 280 272 269 266 263 265 263 255 253 252 245 243 241 241 241
301 298 296 295 292 288 285 284 284 283 281 277 275 274 270 269 267 265 265 256 249 252 253 245 241 241 241
297 296 296 294 293 291 289 287 285 286 287 277 277 273 272 270 270 269 270 265 252 250 251 245 241 238 239
295 295 295 294 295 294 290 287 286 281 286 285 279 275 271 269 269 266 266 267 261 251 251 250 240 238 236
294 292 294 297 297 297 292 288 284 285 281 288 278 272 269 265 268 269 268 267 269 263 255 252 243 235 235
296 293 293 297 298 295 292 288 280 283 285 284 280 277 274 266 264 267 268 267 266 269 262 263 251 235 233
290 289 289 290 293 294 292 286 282 281 279 279 280 275 272 267 261 267 269 270 264 262 263 261 261 248 234
291 289 283 282 286 288 289 284 279 280 279 272 273 280 280 267 259 266 268 262 260 260 257 259 259 254 249
299 297 292 287 285 286 281 279 275 274 278 272 274 274 278 275 263 260 258 259 259 264 262 256 255 254 248
301 304 304 290 286 284 279 282 274 272 271 266 270 269 273 273 264 267 259 258 257 259 263 265 261 257 249
305 305 299 292 289 288 286 273 276 268 265 262 264 269 269 269 269 272 266 255 252 255 256 258 258 256 250
305 304 294 289 291 291 286 278 275 271 263 259 263 268 268 265 268 265 265 253 248 253 252 249 253 253 246
306 303 293 282 284 285 290 286 278 271 264 260 265 270 269 265 262 260 263 259 259 256 254 251 249 254 252
312 306 304 295 281 275 277 285 281 274 269 267 266 264 266 267 265 262 260 259 262 260 255 252 250 252 255
322 316 310 307 294 273 272 282 279 277 273 270 268 268 268 268 263 259 260 261 260 258 256 251 250 250 251